Weather History for Casper, WY

Change the Weather History Date:

Thursday, February 13, 2014

  Actual Average Record
Temperature  
Mean Temperature 40 °F 26 °F  
Max Temperature 48 °F 37 °F 58 °F (1996)
Min Temperature 31 °F 15 °F -20 °F (1949)
Degree Days  
Heating Degree Days 25 39  
Month to date heating degree days 700 516  
Since 1 July heating degree days 5182 4893  
Cooling Degree Days 0 0  
Month to date cooling degree days 0 0  
Year to date cooling degree days 0 0  
Moisture  
Dew Point 28 °F    
Average Humidity 69    
Maximum Humidity 85    
Minimum Humidity 53    
Precipitation  
Precipitation 0.00 in 0.02 in 0.34 in (1952)
Month to date precipitation 0.20 0.25  
Year to date precipitation 0.94 0.76  
Snow  
Snow 0.00 in 0.40 in - ()
Month to date snowfall 3.0 4.5  
Since 1 July snowfall 57.7 44.1  
Snow Depth 0.00 in    
Sea Level Pressure  
Sea Level Pressure 29.77 in    
Wind  
Wind Speed 16 mph (WSW)    
Max Wind Speed 29 mph    
Max Gust Speed 35 mph    
Visibility 10 miles    
Events      
T = Trace of Precipitation, MM = Missing Value Source: NWS Daily Summary

Daily Weather History Graph

Daily Weather History Graph

Search for Another Location

Airport:

Trip Planner

Search our weather history database for the weather conditions in past years. The results will help you decide how hot, cold, wet, or windy it might be!

Date:

Astronomy

Feb. 13, 2014 Rise Set
Actual Time 7:05 AM MST 5:34 PM MST
Civil Twilight 6:36 AM MST 6:04 PM MST
Nautical Twilight 6:03 AM MST 6:37 PM MST
Astronomical Twilight 5:30 AM MST 7:10 PM MST
Moon 4:45 PM MST (2/13) 6:01 AM MST (2/13)
Length of Visible Light 11h 27m
Length of Day
10h 28m
Waxing Gibbous, 99% of the Moon is Illuminated
Feb 13
Waxing Gibbous
Feb 14
Full
Feb 22
Last Quarter
Mar 1
New
Mar 8
First Quarter

Hourly Weather History & Observations

Time (MST) Temp. Windchill Dew Point Humidity Pressure Visibility Wind Dir Wind Speed Gust Speed Precip Events Conditions
12:53 AM 32.0 °F 24.2 °F 26.1 °F 79% 29.83 in 10.0 mi WSW 9.2 mph - N/A   Clear
1:53 AM 34.0 °F 23.8 °F 26.1 °F 73% 29.82 in 10.0 mi SW 16.1 mph - N/A   Clear
2:53 AM 37.9 °F 27.9 °F 25.0 °F 60% 29.80 in 10.0 mi WSW 19.6 mph - N/A   Clear
3:53 AM 37.0 °F - 24.1 °F 59% 29.80 in 10.0 mi North - - N/A   Clear
4:53 AM 34.0 °F 23.0 °F 26.1 °F 73% 29.81 in 10.0 mi SSW 18.4 mph - N/A   Clear
5:53 AM 33.1 °F 23.9 °F 26.1 °F 75% 29.81 in 10.0 mi WSW 12.7 mph - N/A   Clear
6:53 AM 33.1 °F 23.9 °F 26.1 °F 75% 29.81 in 10.0 mi SW 12.7 mph - N/A   Clear
7:53 AM 37.0 °F 27.0 °F 27.0 °F 67% 29.79 in 10.0 mi SW 18.4 mph - N/A   Clear
8:53 AM 39.9 °F 29.7 °F 28.0 °F 63% 29.77 in 10.0 mi SSW 23.0 mph - N/A   Clear
9:53 AM 43.0 °F 35.1 °F 28.9 °F 58% 29.75 in 10.0 mi SW 17.3 mph 28.8 mph N/A   Clear
10:53 AM 43.0 °F 34.0 °F 30.9 °F 62% 29.75 in 10.0 mi WSW 21.9 mph 27.6 mph N/A   Clear
11:53 AM 44.1 °F 36.2 °F 32.0 °F 63% 29.73 in 10.0 mi WSW 18.4 mph 27.6 mph N/A   Clear
12:53 PM 46.9 °F - 30.9 °F 54% 29.67 in 10.0 mi WSW 20.7 mph 29.9 mph N/A   Clear
1:53 PM 46.9 °F - 30.9 °F 54% 29.65 in 10.0 mi WSW 21.9 mph - N/A   Clear
2:53 PM 46.9 °F - 30.0 °F 52% 29.64 in 10.0 mi WSW 17.3 mph 28.8 mph N/A   Clear
3:53 PM 45.0 °F 36.4 °F 30.0 °F 56% 29.67 in 10.0 mi WSW 23.0 mph 34.5 mph N/A   Clear
4:53 PM 42.1 °F 33.9 °F 30.9 °F 65% 29.70 in 10.0 mi WSW 17.3 mph - N/A   Scattered Clouds
5:53 PM 39.9 °F 31.4 °F 26.1 °F 58% 29.74 in 10.0 mi West 16.1 mph - N/A   Clear
6:53 PM 39.0 °F 31.0 °F 26.1 °F 60% 29.77 in 10.0 mi West 13.8 mph - N/A   Partly Cloudy
7:53 PM 37.0 °F 27.4 °F 28.0 °F 70% 29.81 in 10.0 mi NNW 17.3 mph 25.3 mph N/A   Mostly Cloudy
8:01 PM 35.1 °F 27.4 °F 28.9 °F 78% 29.80 in 10.0 mi NNE 10.4 mph - N/A   Mostly Cloudy
8:53 PM 33.1 °F 27.7 °F 28.9 °F 85% 29.83 in 10.0 mi NW 5.8 mph - N/A   Overcast
9:53 PM 32.0 °F 25.6 °F 28.9 °F 88% 29.82 in 10.0 mi WNW 6.9 mph - N/A   Scattered Clouds
10:53 PM 33.1 °F 24.4 °F 26.1 °F 75% 29.83 in 10.0 mi West 11.5 mph - N/A   Mostly Cloudy
11:53 PM 33.1 °F 25.5 °F 27.0 °F 78% 29.85 in 10.0 mi WNW 9.2 mph - N/A   Mostly Cloudy